This demonstration page uses our WeatherBlox Daily Observations layout. Learn more.

Left ArrowRight Arrow

41.55636, -103.73856

Hourly Observations for August 1, 2021

Temp ( °F °C ) Dew Point ( °F °C ) Humidity (%) Winds ( mph kmh ) Pressure ( in mb ) Visibility ( mi km ) Precip ( " mm )
12:58 am 00:58 Clear 60 15.3 53 11.9 80 80 SW 7 11 30.29 1026 8 13 N/A
1:58 am 01:58 Clear 60 15.4 53 11.6 78 78 WSW 6 9 30.29 1026 10 16 N/A
2:58 am 02:58 Clear 59 15 52 11.2 78 78 WSW 5 7 30.27 1025 10 16 N/A
3:58 am 03:58 Clear 58 14.2 51 10.7 80 80 W 3 6 30.27 1025 10 16 N/A
4:58 am 04:58 Clear 57 14.1 51 10.5 79 79 WSW 5 7 30.27 1025 10 16 N/A
5:58 am 05:58 Sunny 54 12.1 50 10 87 87 SW 6 9 30.30 1026 8 13 N/A
6:58 am 06:58 Sunny 55 12.9 51 10.8 87 87 SW 3 6 30.30 1026 8 13 N/A
7:58 am 07:58 Sunny 62 16.4 54 12.4 77 77 N N/A 30.31 1026 9 14 N/A
8:58 am 08:58 Sunny 67 19.4 55 12.7 65 65 N N/A 30.31 1026 9 14 N/A
9:58 am 09:58 Sunny 72 22.2 55 12.6 55 55 ENE 3 6 30.31 1026 10 16 N/A
10:58 am 10:58 Sunny 76 24.3 51 10.3 41 41 N N/A 30.29 1026 10 16 N/A
11:58 am 11:58 Sunny 77 25 44 6.9 31 31 N N/A 30.27 1025 9 14 N/A
12:58 pm 12:58 Sunny 81 27 45 7.1 28 28 SE 8 13 30.25 1025 9 14 N/A
1:58 pm 13:58 Sunny 80 26.9 42 5.7 26 26 WSW 3 6 30.24 1024 9 14 N/A
2:58 pm 14:58 Sunny 81 27.4 42 5.5 25 25 N N/A 30.22 1023 9 14 N/A
3:58 pm 15:58 Sunny 82 27.9 42 5.4 24 24 NE 14 22 30.20 1023 10 16 N/A
4:58 pm 16:58 Hazy 82 27.6 40 4.3 22 22 N N/A 30.19 1022 7 11 N/A
5:58 pm 17:58 Sunny 81 27.2 40 4.3 23 23 N N/A 30.18 1022 10 16 N/A
6:58 pm 18:58 Sunny 78 25.7 44 6.4 29 29 E 8 13 30.18 1022 10 16 N/A
7:58 pm 19:58 Sunny 71 21.8 48 8.9 44 44 SE 10 17 30.20 1023 10 16 N/A
8:58 pm 20:58 Clear 70 21.3 46 7.6 41 41 SSE 14 22 30.20 1023 10 16 N/A
9:58 pm 21:58 Clear 68 20.2 46 7.5 44 44 SSE 14 22 30.19 1022 10 16 N/A
10:58 pm 22:58 Clear 68 19.8 46 7.8 46 46 SSE 14 22 30.17 1022 10 16 N/A
11:58 pm 23:58 Clear 67 19.4 48 8.9 51 51 SSE 15 24 30.17 1022 10 16 N/A

Powered by AerisWeather